Location: Bernay
(48.6766°N, 2.9386°E)
Time: 06:44:48
(UTC+00:00)

Cosmos 2297 - Pass Details

Date: 12 January 2026
Orbit: 835 x 857 km, 71.0° (Epoch: 17 February)

Event Time Altitude Azimuth Distance (km) Brightness Sun altitude
Rises 17:26:35 0° 329° (NNW) 3,399 7.0 -11.3°
Reaches altitude 10° 17:29:02 10° 327° (NNW) 2,463 6.3 -11.7°
Maximum altitude 17:34:37 64° 247° (WSW) 928 4.2 -12.5°
Drops below altitude 10° 17:40:12 10° 167° (SSE) 2,460 6.2 -13.4°
Sets 17:42:39 0° 164° (SSE) 3,394 6.9 -13.8°
